Location: Stanford Rivers
(51.6667°N, 0.2167°E)
Time: 00:15:46
(UTC+00:00)

Daily predictions for brighter satellites

Satellite Brightness Start Highest point End
(mag) Time Altitude Azimuth Time Altitude Azimuth Time Altitude Azimuth
H-2A R/B 4.4 00:02:35 10° N 00:06:25 40° WNW 00:08:45 20° SW
Cosmos 2322 Rocket 3.7 00:01:48 10° WSW 00:06:53 34° NW 00:12:00 10° NNE
USA 306 4.1 00:07:12 24° SE 00:07:12 24° SE 00:10:25 10° E
Cosmos 1844 Rocket 4.4 00:03:34 10° WNW 00:07:19 19° W 00:09:35 15° SW
Lacrosse 5 4.0 00:07:00 11° SE 00:07:33 11° ESE 00:09:02 10° ESE
Cosmos 371 Rocket 4.2 00:06:52 25° SSE 00:08:51 36° ESE 00:13:17 10° NE
Cosmos 1461 3.5 00:05:14 10° NW 00:09:08 40° WSW 00:10:09 34° SSW
SL-16 R/B 4.4 00:04:30 10° ESE 00:09:28 26° NE 00:14:26 10° N
Cosmos 2322 3.7 00:07:23 23° SSW 00:11:03 85° WNW 00:16:50 10° NNE
USA 307 4.2 00:11:14 23° SE 00:11:14 23° SE 00:14:24 10° E
Cosmos 2333 Rocket 2.5 00:07:16 18° SW 00:11:29 67° NW 00:17:10 10° NNE
Cosmos 220 Rocket 3.8 00:11:12 35° SSW 00:12:52 78° ESE 00:17:05 10° NNE
ATLAS CENTAUR R/B 3.1 00:09:13 10° WNW 00:12:55 22° WSW 00:13:49 21° SW
Cosmos 1709 Rocket 4.4 00:08:59 10° N 00:15:02 55° ENE 00:19:32 18° SSE
ASTEX 1 3.3 00:10:38 10° N 00:15:34 90° E 00:18:02 30° S
SL-19 R/B 3.8 00:19:09 48° SW 00:19:34 53° WSW 00:22:25 10° NNW
Cosmos 1386 Rocket 4.4 00:14:29 10° N 00:20:33 89° W 00:24:14 25° S
NOSS 2-2 (C) 4.2 00:16:39 10° NW 00:21:29 68° SW 00:26:47 16° SSE
USA 267 3.4 00:17:02 19° SSE 00:21:39 50° SW 00:28:01 10° WNW
USA 229 DEB 3.9 00:17:06 10° NW 00:24:20 67° SW 00:30:40 16° SSE
USA 229 3.9 00:17:12 10° NW 00:24:25 67° SW 00:30:48 16° SSE
Cosmos 1674 Rocket 3.5 00:23:08 34° S 00:25:01 83° E 00:29:22 10° NNE
ATLAS 2AS CENTAUR R/B 4.4 00:18:53 10° W 00:25:53 36° NNW 00:32:33 10° NE
S3M 4.1 00:24:09 25° S 00:28:03 76° E 00:34:25 10° NNE
Cosmos 2219 Rocket 2.5 00:26:27 19° SW 00:30:32 62° NW 00:36:07 10° NNE
Cosmos 2221 Rocket 3.8 00:28:33 30° SSW 00:30:37 63° WNW 00:35:01 10° N
Cosmos 1553 Rocket 4.1 00:28:15 25° SSW 00:31:59 71° WNW 00:38:14 10° N
Cosmos 494 Rocket 4.2 00:29:28 10° NNW 00:34:27 52° WSW 00:36:50 28° SSW
Cosmos 1048 Rocket 4.4 00:30:06 10° NW 00:35:04 47° WSW 00:37:22 28° SSW
Cosmos 2150 Rocket 4.1 00:32:32 28° S 00:35:11 63° ESE 00:40:17 10° NNE
Meteor 1-16 Rocket 4.4 00:30:05 10° NNW 00:35:59 68° W 00:39:24 26° S
CZ-2D R/B 3.9 00:32:52 10° NE 00:36:58 22° E 00:40:53 11° SE
Cosmos 1707 4.1 00:35:39 20° WSW 00:37:32 29° WNW 00:40:59 10° N
MOZ.5/SAFIR/RUBIN 5/SL-8 4.4 00:34:54 17° SE 00:38:24 55° ENE 00:43:04 10° N
ERS-2 4.0 00:36:17 10° N 00:39:10 23° WNW 00:41:16 14° WSW
Cosmos 1455 Rocket 4.0 00:34:58 10° N 00:39:17 45° ENE 00:42:28 17° SE
Cosmos 1378 Rocket 3.6 00:37:53 31° SSW 00:39:57 75° W 00:44:25 10° N
USA 308 3.6 00:40:45 31° SSE 00:41:35 34° SE 00:45:23 10° ENE
Cosmos 1300 2.7 00:38:25 10° N 00:42:14 77° ENE 00:43:56 31° SSE
Okean 2 4.3 00:42:41 23° SW 00:44:38 38° WNW 00:48:31 10° N
USA 290 3.0 00:43:29 29° WSW 00:44:41 45° WNW 00:47:50 10° NNE
Cosmos 1125 Rocket 3.5 00:43:32 28° SSW 00:46:23 79° ESE 00:51:36 10° NNE
NOSS 0 Rocket 4.0 00:45:01 25° SSW 00:48:53 76° ESE 00:55:09 10° NE
Cosmos 1238 Rocket 3.6 00:47:41 10° NW 00:50:08 23° W 00:50:31 23° WSW
NOSS 3-1 (A) 4.5 00:43:47 10° NW 00:50:46 44° WSW 00:56:19 20° S
CZ-4C R/B 3.6 00:48:21 10° NW 00:54:54 36° WSW 00:59:25 21° SSW
SL-14 R/B 3.2 00:53:24 33° SSW 00:55:03 82° WNW 00:58:56 10° N
ERBS 3.0 00:55:13 31° SE 00:55:14 31° SE 00:57:59 10° ENE
PSLV R/B 4.4 00:54:43 10° N 00:58:52 44° WNW 01:01:26 21° SW
Cosmos 1975 Rocket 3.7 00:56:40 22° SSE 00:59:13 48° E 01:03:33 10° NNE
Cosmos 2237 Rocket 2.3 00:56:44 25° SSW 01:00:08 72° ESE 01:05:50 10° NNE
Cosmos 1025 Rocket 3.9 01:00:08 20° SSE 01:02:43 42° E 01:06:47 10° NNE
Resurs 1-4 Rocket 3.3 00:58:20 10° NNE 01:03:09 34° E 01:07:01 15° SSE
USA 305 3.0 01:02:25 29° SSW 01:04:13 52° SSE 01:08:17 10° ENE
COSMOS 2428 3.3 00:59:51 16° SW 01:04:21 51° NW 01:09:55 10° NNE
Cosmos 405 Rocket 3.5 01:03:21 25° SW 01:05:03 41° WNW 01:08:41 10° N
Gblst 52 Del rocket 4.2 00:59:49 10° W 01:05:55 89° S 01:11:29 10° E
Cosmos 1745 Rocket 4.5 01:00:04 10° NNW 01:05:59 46° W 01:09:40 22° SSW
SME Rocket 3.4 01:03:28 19° SSE 01:06:24 81° ENE 01:12:00 10° NNW
Cosmos 1437 Rocket 3.8 01:04:24 10° NNW 01:07:43 30° W 01:08:52 25° SW
Cosmos 332 Rocket 3.9 01:08:19 25° S 01:11:01 66° ESE 01:15:46 10° NNE
Cosmos 2360 Rocket 4.3 01:07:25 10° W 01:11:49 22° NW 01:16:13 10° NNE
Cosmos 1943 Rocket 2.3 01:06:49 10° NNW 01:12:33 79° ENE 01:18:14 10° SE
Cosmos 1626 3.8 01:11:57 16° WSW 01:13:45 23° WNW 01:16:44 10° NNW
Lacrosse 5 rocket 3.1 01:14:37 16° SSE 01:15:41 17° SE 01:18:19 10° E
ADEOS II 3.8 01:12:31 10° NE 01:16:53 26° E 01:21:12 10° SSE
GP-B 3.1 01:12:28 10° N 01:16:56 76° W 01:19:29 25° SSW
Cosmos 2297 4.0 01:12:33 10° NNW 01:18:20 71° ENE 01:24:03 10° SE
Cosmos 2298 Rocket 4.3 01:15:02 21° SW 01:18:35 62° WNW 01:23:53 10° NNE
Cosmos 1953 3.5 01:15:24 10° NNW 01:18:51 28° W 01:20:22 22° SW
Cosmos 1867 4.2 01:14:21 12° WSW 01:19:19 53° NW 01:24:43 10° NE
Thor Agena Rocket 3.6 01:15:25 10° NNE 01:20:44 80° ESE 01:24:18 22° S
Cosmos 1544 Rocket 3.8 01:21:26 10° N 01:25:52 68° ENE 01:29:31 15° SSE
USA 215 3.6 01:20:51 10° ENE 01:27:20 66° NNW 01:33:49 10° W
Cosmos 2278 Rocket 3.2 01:23:15 10° NW 01:28:03 29° WSW 01:30:39 20° SW
NPP 4.2 01:31:51 10° NNE 01:37:09 53° E 01:41:35 15° S
MOS 1 Rocket 3.7 01:33:39 10° SSE 01:37:50 56° ENE 01:42:06 10° N
EO 1 Delta rocket 4.2 01:33:50 10° N 01:38:23 58° WNW 01:41:51 20° SSW
Cosmos 2369 Rocket 2.9 01:36:04 10° NNW 01:41:37 57° NE 01:47:07 10° SE
USA 306 2.8 01:42:53 16° WSW 01:46:11 81° SSE 01:50:23 10° ENE
SL-16 R/B 2.5 01:44:11 18° S 01:48:24 61° ESE 01:54:01 10° NE
Cosmos 371 Rocket 4.3 01:45:30 14° WSW 01:49:15 38° NW 01:53:48 10° NNE
Lacrosse 5 2.3 01:46:10 20° SSW 01:49:29 48° SE 01:54:24 10° ENE
USA 307 2.8 01:46:57 16° WSW 01:50:15 78° SSE 01:54:27 10° ENE
Meteor 1-28 Rocket 3.9 01:47:12 10° SSE 01:50:50 53° ENE 01:54:29 10° N
SL-16 R/B 2.5 01:46:15 10° SSE 01:52:28 80° WSW 01:58:45 10° NNW
Cosmos 1980 4.2 01:47:57 15° SW 01:52:33 52° NW 01:58:07 10° NNE
Cosmos 2074 Rocket 4.0 01:46:39 10° NNW 01:52:59 81° W 01:59:10 10° S
Cosmos 1269 Rocket 4.5 01:51:33 10° NW 01:56:33 44° WSW 02:00:38 15° S
Cosmos 2333 Rocket 4.4 01:52:45 10° W 01:56:52 20° NNW 02:01:02 10° NNE
Cosmos 304 Rocket 4.4 01:54:13 16° SW 01:57:51 47° WNW 02:02:32 10° NNE
Cosmos 2084 Rocket 3.1 01:56:07 20° SW 01:58:40 81° SE 02:02:29 10° NE
AQUA 4.1 01:56:00 10° NNE 02:00:45 63° ESE 02:04:57 13° S
Cosmos 1455 2.2 02:02:03 10° NNW 02:05:42 59° W 02:08:34 16° S
NOSS 3 (A) 4.4 02:07:27 25° W 02:08:00 35° NW 02:09:46 10° NNE
Cosmos 2184 Rocket 4.1 02:02:50 10° NNW 02:09:02 65° W 02:15:07 10° S
Cosmos 1610 Rocket 4.5 02:05:45 10° N 02:11:57 88° W 02:18:05 10° S
Meteor 1-24 Rocket 3.8 02:07:37 15° SSW 02:12:10 64° WNW 02:17:34 10° N
Cosmos 407 Rocket 4.4 02:07:20 10° NNW 02:12:35 53° ENE 02:17:44 10° SE
Cosmos 2228 3.4 02:08:40 10° N 02:13:03 68° ENE 02:17:22 10° SSE
Cosmos 1271 Rocket 2.6 02:09:57 10° NNW 02:13:47 84° W 02:17:39 10° S
COSMOS 2455 3.3 02:08:44 13° SSW 02:13:55 53° ESE 02:19:47 10° NE
Cosmos 2219 Rocket 4.4 02:11:45 10° WNW 02:15:39 19° NNW 02:19:36 10° NNE
Cosmos 1455 Rocket 4.5 02:13:18 10° NW 02:16:51 23° W 02:19:33 14° SW
CZ-2D R/B 2.3 02:12:11 10° NNE 02:17:33 69° WNW 02:22:12 13° SSW
Iridium 82 4.5 02:16:22 13° S 02:19:33 89° E 02:23:05 10° N
Cosmos 1140 Rocket 4.1 02:15:37 10° NNW 02:20:51 62° ENE 02:26:03 10° SE
USA 308 2.9 02:16:46 10° WSW 02:20:57 83° NNW 02:25:10 10° ENE
MSX 4.3 02:18:52 10° NNE 02:24:34 58° E 02:30:15 10° S
Cosmos 1536 Rocket 3.6 02:25:14 12° SSW 02:29:16 75° WNW 02:33:40 10° N
SAR-Lupe-2 3.6 02:25:48 10° N 02:29:23 70° WNW 02:32:32 13° SSW
Cosmos 292 Rocket 3.9 02:25:27 12° SSW 02:29:56 73° ESE 02:34:44 10° NNE
ERBS 2.8 02:27:29 10° W 02:30:28 50° NNW 02:33:29 10° NE
Genesis I 3.3 02:34:48 10° NW 02:38:55 89° WSW 02:42:56 10° SE
Cosmos 1025 Rocket 4.5 02:37:00 10° WSW 02:40:29 24° WNW 02:44:03 10° NNW
Cosmos 1943 4.0 02:37:07 10° S 02:42:31 46° ESE 02:47:56 10° NE
Meteor 2-1 Rocket 4.3 02:36:58 10° NNW 02:42:48 87° ENE 02:48:27 10° SSE
Resurs 1-4 Rocket 2.8 02:38:06 10° N 02:43:04 43° WNW 02:48:01 10° SW
USA 305 3.2 02:39:36 10° W 02:43:46 69° N 02:47:57 10° ENE
DEBRIS 4.0 02:30:31 10° W 02:43:51 67° SSW 02:47:34 10° ESE
Cosmos 2237 Rocket 3.6 02:39:47 10° WSW 02:44:44 29° NW 02:49:43 10° NNE
Helios 1B rocket 3.9 02:42:27 10° NNE 02:46:10 33° E 02:49:51 10° SSE
Nadezhda 1 Rocket 4.2 02:40:07 10° SSW 02:46:26 67° WNW 02:52:42 10° N
Cosmos 1606 Rocket 3.5 02:44:32 10° NNW 02:48:59 81° W 02:53:22 10° S
Cosmos 1328 4.4 02:45:54 10° S 02:49:46 56° E 02:53:43 10° NNE
Lacrosse 5 rocket 1.3 02:50:13 10° SW 02:54:07 80° SSE 02:58:17 10° ENE
Cosmos 1943 Rocket 3.5 02:51:30 10° NW 02:55:41 21° W 02:59:50 10° SSW
IDEFIX/ARIANE 42P 2.7 02:50:43 10° N 02:55:58 68° WNW 03:01:12 10° SSW
ADEOS II 2.4 02:51:45 10° N 02:56:54 57° WNW 03:02:02 10° SW
Gblst 52 Del rocket 4.1 02:51:52 10° WNW 02:57:36 71° SSW 03:03:03 10° ESE
Cosmos 2263 4.3 02:57:22 10° NW 03:02:56 57° WSW 03:08:29 10° S
Cosmos 1703 3.7 03:00:22 10° SSW 03:04:10 48° WNW 03:08:00 10° N
COSMOS 2441 4.4 03:00:17 10° NNE 03:05:11 84° WNW 03:10:02 10° SSW
EO 1 Del DPAF 3.7 03:03:10 10° N 03:06:30 42° WNW 03:09:49 10° SW
Helios 1A 4.0 03:02:53 10° SSW 03:06:36 30° W 03:10:21 10° NNW
IRS-1D 3.7 03:02:42 10° NNE 03:08:05 85° WNW 03:13:22 10° SSW
Cosmos 2366 rocket 4.0 03:03:47 10° N 03:09:59 88° W 03:16:11 10° S
USA 215 4.0 03:03:37 10° E 03:09:59 57° N 03:16:22 10° WNW
BREEZE-M DEB (TANK) 3.4 03:01:43 10° W 03:10:24 71° S 03:13:26 10° E
Cosmos 2251 Rocket 4.1 03:05:58 10° NW 03:10:47 37° WSW 03:15:36 10° S
Cosmos 2341 Rocket 4.2 03:07:17 10° NNW 03:13:35 62° W 03:19:51 10° S
